EW1549 Weather Reports


time (UTC)temp
C
wind
direction
speed
KPH
gust
KPH
rain 1hr
cm
rain 24hr
cm
rain mn
cm
humidity
%
barometer
mb
20260506153025 18 346 8.0 16.1 0.00 0.00 0.00 84 1013.2
20260506151521 18 29 8.0 17.7 0.00 0.00 0.00 85 1013.3
20260506150020 19 14 9.7 17.7 0.00 0.00 0.00 85 1013.4
20260506144519 19 324 9.7 19.3 0.00 0.00 0.00 82 1013.2
20260506143024 20 354 9.7 19.3 0.00 0.00 0.00 78 1013.1
20260506141517 20 339 6.4 12.9 0.00 0.00 0.00 77 1013.1
20260506140020 20 53 4.8 9.7 0.00 0.00 0.00 78 1013.2
20260506134516 19 280 4.8 14.5 0.00 0.00 0.00 77 1013.3
20260506133016 20 20 6.4 14.5 0.00 0.00 0.00 77 1013.7
20260506131514 20 340 1.6 9.7 0.00 0.00 0.00 76 1013.8
20260506130012 20 27 6.4 17.7 0.00 0.00 0.00 76 1013.9
20260506124512 21 5 1.6 8.0 0.00 0.00 0.00 71 1013.9
20260506123011 20 357 1.6 8.0 0.00 0.00 0.00 73 1013.8
20260506121508 20 12 3.2 12.9 0.00 0.00 0.00 74 1014.0
20260506120008 20 19 6.4 14.5 0.00 0.00 0.00 74 1014.0
20260506114508 20 291 6.4 16.1 0.00 0.00 0.00 71 1014.1
20260506113008 20 19 11.3 17.7 0.00 0.00 0.00 70 1014.1
20260506111507 20 347 6.4 14.5 0.00 0.00 0.00 72 1014.0
20260506110006 20 307 0.0 4.8 0.00 0.00 0.00 72 1013.9
20260506104515 20 15 3.2 8.0 0.00 0.00 0.00 72 1013.8
20260506103110 20 316 3.2 11.3 0.00 0.00 0.00 72 1013.9
20260506101506 20 17 3.2 9.7 0.00 0.00 0.00 70 1014.1
20260506100002 20 22 4.8 9.7 0.00 0.00 0.00 68 1013.9
20260506094601 20 26 3.2 9.7 0.00 0.00 0.00 72 1014.0
20260506093100 20 67 1.6 11.3 0.00 0.00 0.00 73 1014.0
20260506091601 20 25 1.6 4.8 0.00 0.00 0.00 73 1013.9
20260506090058 20 152 1.6 3.2 0.00 0.00 0.00 73 1013.8
20260506084557 20 14 3.2 6.4 0.00 0.00 0.00 73 1013.7
20260506083056 19 107 0.0 3.2 0.00 0.00 0.00 82 1013.7
20260506081600 17 172 0.0 6.4 0.00 0.00 0.00 84 1013.7
20260506073053 16 187 3.2 8.0 0.00 0.00 0.00 83 1013.3
20260506071606 16 184 4.8 6.4 0.00 0.00 0.00 83 1013.1
20260506061547 16 166 6.4 11.3 0.00 0.00 0.00 80 1012.8
20260506044540 16 185 4.8 6.4 0.00 0.00 0.00 82 1012.4
20260506043048 16 177 3.2 6.4 0.00 0.00 0.00 82 1012.4
20260506041541 16 184 1.6 4.8 0.00 0.00 0.00 80 1012.3
20260506040045 16 203 1.6 4.8 0.00 0.00 0.00 82 1012.3
20260506034533 16 175 3.2 6.4 0.00 0.00 0.00 82 1012.5
20260506033032 16 205 0.0 9.7 0.00 0.00 0.00 82 1012.6
20260506031530 16 168 4.8 11.3 0.00 0.00 0.00 83 1012.7
20260506030027 17 180 1.6 4.8 0.00 0.00 0.00 80 1013.0
20260506024534 18 121 0.0 0.0 0.00 0.00 0.00 80 1012.9
20260506023024 19 120 0.0 0.0 0.00 0.00 0.00 80 1013.0
20260506021539 19 120 0.0 0.0 0.00 0.00 0.00 80 1013.2
20260506020018 19 120 0.0 3.2 0.00 0.00 0.00 80 1013.4
20260506014522 19 231 0.0 0.0 0.00 0.00 0.00 80 1013.9
20260506013014 19 231 0.0 3.2 0.00 0.00 0.00 81 1013.8
20260506011521 19 231 0.0 3.2 0.00 0.00 0.00 81 1014.0
20260506010013 20 231 0.0 0.0 0.00 0.00 0.00 81 1014.2
20260506004510 20 231 0.0 0.0 0.00 0.00 0.00 81 1014.2
20260506003009 19 231 1.6 4.8 0.00 0.00 0.00 81 1014.4
20260506001512 20 231 3.2 4.8 0.00 0.00 0.00 81 1014.5
20260506000007 20 231 4.8 6.4 0.00 0.00 0.00 82 1014.4
20260505234511 20 231 4.8 9.7 0.00 0.00 0.00 82 1014.5
20260505233005 20 244 4.8 6.4 0.00 0.00 0.00 82 1014.3
20260505231501 20 46 4.8 8.0 0.00 0.00 0.00 82 1014.4
20260505230159 20 50 1.6 8.0 0.00 0.00 0.00 82 1014.2
20260505224559 20 52 0.0 8.0 0.00 0.00 0.00 81 1014.4
20260505223040 20 46 4.8 14.5 0.00 0.00 0.00 81 1014.5
20260505221537 20 19 3.2 8.0 0.00 0.00 0.00 80 1014.5
20260505220040 20 2 3.2 6.4 0.00 0.00 0.00 79 1014.3
20260505214550 20 54 1.6 8.0 0.00 0.00 0.00 79 1014.3
20260505213036 20 255 1.6 4.8 0.00 0.00 0.00 78 1014.2
20260505211542 20 255 0.0 4.8 0.00 0.00 0.00 78 1014.1
20260505210034 20 276 3.2 8.0 0.00 0.00 0.00 78 1014.0
20260505204536 20 93 1.6 6.4 0.00 0.00 0.00 78 1014.0
20260505203049 20 105 4.8 14.5 0.00 0.00 0.00 78 1014.0
20260505201532 20 41 0.0 12.9 0.00 0.00 0.00 78 1013.9
20260505200031 20 63 4.8 12.9 0.00 0.00 0.00 78 1013.8
20260505194531 20 41 4.8 12.9 0.00 0.00 0.00 78 1013.7
20260505193031 20 50 6.4 14.5 0.00 0.00 0.00 78 1013.6
20260505191530 21 51 8.0 14.5 0.00 0.00 0.00 77 1013.5
20260505190029 21 36 6.4 14.5 0.00 0.00 0.00 77 1013.4
20260505184542 21 41 8.0 12.9 0.00 0.00 0.00 76 1013.5
20260505183037 21 19 4.8 9.7 0.00 0.00 0.00 75 1013.5
20260505181528 21 16 4.8 12.9 0.00 0.00 0.00 76 1013.6
20260505180028 21 9 4.8 16.1 0.00 0.00 0.00 77 1013.5
20260505174526 21 46 9.7 16.1 0.00 0.00 0.00 76 1013.3
20260505173026 21 63 6.4 12.9 0.00 0.00 0.00 76 1013.5
20260505171526 21 41 4.8 14.5 0.00 0.00 0.00 76 1013.5
20260505170034 21 56 8.0 16.1 0.00 0.00 0.00 76 1013.4
20260505164525 21 13 8.0 16.1 0.00 0.00 0.00 76 1013.5
20260505163008 22 22 8.0 14.5 0.00 0.00 0.00 75 1013.6
20260505161505 22 358 6.4 12.9 0.00 0.00 0.00 74 1013.6